Manhattan, KS

8:42 PM CST on December 08, 2019 (GMT -0600)
Manhattan Regional

Weather History for KMHK - October, 2019

Change the Weather History Date:

Tuesday, October 1, 2019

  Actual Average Record
Temperature  
Mean Temperature 82 °F 61 °F  
Max Temperature 91 °F 74 °F 95 °F (2006)
Min Temperature 72 °F 48 °F 32 °F (2003)
Degree Days  
Heating Degree Days 0 6  
Month to date heating degree days 6  
Since 1 July heating degree days 76  
Cooling Degree Days 16 2  
Month to date cooling degree days 2  
Year to date cooling degree days 1339  
Growing Degree Days 32 (Base 50)    
Moisture  
Dew Point 71 °F    
Average Humidity 79    
Maximum Humidity 94    
Minimum Humidity 53    
Precipitation  
Precipitation 0.58 in 0.09 in 1.00 in (2014)
Month to date precipitation 0.09  
Year to date precipitation 27.80  
Sea Level Pressure  
Sea Level Pressure 29.83 in    
Wind  
Wind Speed 11 mph (SW)    
Max Wind Speed 25 mph    
Max Gust Speed 44 mph    
Visibility 9 miles    
Events Fog , Rain , Thunderstorm    
T = Trace of Precipitation, MM = Missing Value Source: NWS Daily Summary

Daily Weather History Graph

Daily Weather History Graph

Search for Another Location

Airport or City:

Astronomy

Oct. 01, 2019 Rise Set
Actual Time 7:22 AM CDT 7:09 PM CDT
Civil Twilight 6:55 AM CDT 7:36 PM CDT
Nautical Twilight 6:24 AM CDT 8:07 PM CDT
Astronomical Twilight 5:53 AM CDT 8:38 PM CDT
Moon 10:38 AM CDT (10/1) 9:24 PM CDT (10/1)
Length of Visible Light 12h 40m
Length of Day
11h 47m
Waxing Crescent, 12% of the Moon is Illuminated
Oct 1
Waxing Crescent
Oct 5
First Quarter
Oct 13
Full
Oct 21
Last Quarter
Oct 27
New

Hourly Weather History & Observations

Time (CDT) Temp. Heat Index Dew Point Humidity Pressure Visibility Wind Dir Wind Speed Gust Speed Precip Events Conditions
12:52 AM 79.0 °F - 70.0 °F 74% 29.83 in 10.0 mi South 8.1 mph - N/A   Clear
1:52 AM 78.1 °F - 70.0 °F 76% 29.83 in 10.0 mi SSW 12.7 mph 19.6 mph N/A   Clear
2:52 AM 77.0 °F - 70.0 °F 79% 29.83 in 10.0 mi SSW 10.4 mph 21.9 mph N/A   Clear
3:52 AM 75.9 °F - 70.0 °F 82% 29.83 in 10.0 mi SSW 15.0 mph - N/A   Clear
4:52 AM 75.9 °F - 70.0 °F 82% 29.84 in 10.0 mi SSW 11.5 mph 23.0 mph N/A   Clear
5:52 AM 77.0 °F - 70.0 °F 79% 29.85 in 10.0 mi SSW 11.5 mph 23.0 mph N/A   Clear
6:52 AM 75.9 °F - 69.1 °F 79% 29.86 in 10.0 mi SSW 11.5 mph - N/A   Clear
7:52 AM 75.9 °F - 69.1 °F 79% 29.86 in 10.0 mi SW 9.2 mph - N/A   Clear
8:52 AM 78.1 °F - 70.0 °F 76% 29.86 in 10.0 mi SSW 10.4 mph - N/A   Clear
9:52 AM 81.0 °F 84.9 °F 71.1 °F 72% 29.86 in 10.0 mi SSW 13.8 mph 23.0 mph N/A   Clear
10:52 AM 84.9 °F 90.7 °F 72.0 °F 65% 29.86 in 10.0 mi SSW 11.5 mph 24.2 mph N/A   Partly Cloudy
11:52 AM 89.1 °F 97.0 °F 73.0 °F 59% 29.84 in 10.0 mi SSW 11.5 mph 26.5 mph N/A   Partly Cloudy
12:52 PM 90.0 °F 96.4 °F 71.1 °F 54% 29.82 in 10.0 mi SSW 18.4 mph 35.7 mph N/A   Mostly Cloudy
1:52 PM 90.0 °F 96.4 °F 71.1 °F 54% 29.81 in 10.0 mi SW 25.3 mph 38.0 mph N/A   Mostly Cloudy
2:52 PM 89.1 °F 95.0 °F 71.1 °F 55% 29.77 in 10.0 mi South 18.4 mph 33.4 mph N/A   Mostly Cloudy
3:52 PM 89.1 °F 94.1 °F 70.0 °F 53% 29.75 in 10.0 mi South 19.6 mph 36.8 mph N/A   Scattered Clouds
4:52 PM 88.0 °F 92.9 °F 70.0 °F 55% 29.75 in 10.0 mi SSW 15.0 mph 29.9 mph N/A   Scattered Clouds
5:52 PM 86.0 °F 90.1 °F 69.1 °F 57% 29.73 in 10.0 mi South 11.5 mph - N/A   Clear
6:05 PM 86.0 °F 90.1 °F 69.1 °F 57% 29.74 in 10.0 mi South 21.9 mph 31.1 mph N/A Thunderstorm Scattered Clouds
6:19 PM 77.0 °F - 71.1 °F 82% 29.81 in 3.0 mi West 25.3 mph 43.7 mph 0.09 in Rain , Thunderstorm Thunderstorms and Rain
6:22 PM 73.9 °F - 71.1 °F 91% 29.83 in 1.8 mi WSW 13.8 mph 43.7 mph 0.20 in Rain , Thunderstorm Heavy Thunderstorms and Rain
6:31 PM 73.0 °F - 71.1 °F 93% 29.83 in 0.5 mi West 10.4 mph 27.6 mph 0.51 in Fog , Rain , Thunderstorm Heavy Thunderstorms and Rain
6:38 PM 73.9 °F - 71.1 °F 91% 29.83 in 1.0 mi WNW 8.1 mph 17.3 mph 0.52 in Rain Light Rain
6:41 PM 73.9 °F - 71.1 °F 91% 29.83 in 4.0 mi Variable 5.8 mph 17.3 mph 0.52 in Rain Light Rain
6:50 PM 73.4 °F - 71.6 °F 94% 29.83 in 10.0 mi Variable 4.6 mph - 0.52 in   Overcast
6:52 PM 73.9 °F - 71.1 °F 91% 29.81 in 10.0 mi North - - 0.52 in   Overcast
7:13 PM 73.9 °F - 71.1 °F 91% 29.83 in 10.0 mi Variable 5.8 mph 17.3 mph N/A   Overcast
7:52 PM 73.9 °F - 71.1 °F 91% 29.81 in 10.0 mi Calm Calm - N/A   Overcast
8:52 PM 73.9 °F - 72.0 °F 93% 29.83 in 8.0 mi SSW 3.5 mph - 0.02 in Rain Rain
9:05 PM 73.9 °F - 72.0 °F 93% 29.86 in 8.0 mi Calm Calm - 0.02 in Rain Light Rain
9:17 PM 73.9 °F - 72.0 °F 93% 29.86 in 10.0 mi Calm Calm - 0.02 in   Scattered Clouds
9:52 PM 73.0 °F - 71.1 °F 93% 29.83 in 10.0 mi WSW 5.8 mph - 0.02 in   Mostly Cloudy
10:03 PM 73.9 °F - 71.1 °F 91% 29.87 in 10.0 mi WSW 8.1 mph - N/A   Overcast
10:14 PM 73.9 °F - 72.0 °F 93% 29.88 in 10.0 mi West 3.5 mph - 0.01 in Rain Light Rain
10:24 PM 73.9 °F - 70.0 °F 87% 29.87 in 10.0 mi WSW 5.8 mph - 0.01 in Rain Light Rain
10:52 PM 73.0 °F - 70.0 °F 90% 29.85 in 7.0 mi WSW 5.8 mph - 0.02 in Rain Light Rain
11:26 PM 73.0 °F - 70.0 °F 90% 29.89 in 10.0 mi Variable 5.8 mph - 0.02 in   Overcast
11:30 PM 72.0 °F - 69.1 °F 91% 29.89 in 10.0 mi NW 5.8 mph - 0.02 in Rain Light Rain